Location: St. Louis
(38.6270°N, 90.1994°W)
Time: 20:37:29
(UTC-06:00)

Vanguard 3 - Pass Details

Date: 07 December 2021
Orbit: 508 x 3260 km, 33.3° (Epoch: 19 January)

Event Time Altitude Azimuth Distance (km) Brightness Sun altitude
Exits shadow 05:15:14 21° 261° (W) 5,274 10.7 -20.9°
Maximum altitude 05:30:46 74° 184° (S) 3,062 10.0 -18.0°
Drops below altitude 10° 05:45:34 10° 102° (ESE) 4,738 12.4 -15.2°
Sets 05:48:36 0° 101° (E) 5,437 13.3 -14.6°
